Regional Weather Roundup
Issued by NWS State College, PA

Home | Current Version | Previous Version | Text Only | Print | Product List | Glossary On
Versions: 1 2 3 4 5 6 7 8 9 10 11 12 13 14 15 16 17 18 19 20 21 22 23 24 25 26 27 28 29 30 31 32 33 34 35 36 37 38 39 40 41 42 43 44 45 46 47 48 49 50
000
ASUS41 KCTP 281810
RWRCTP

REGIONAL WEATHER ROUNDUP
NATIONAL WEATHER SERVICE STATE COLLEGE PA
200 PM EDT FRI APR 28 2017

Note: "fair" indicates few or no clouds below 12,000 feet with no
significant weather and/or obstructions to visibility.

* = STATION THAT DOES NOT REPORT PRECIPITATION /E.G. RAIN...SNOW...ETC/
    THUNDER OR FOG.

PAZ002>004-007>009-013>016-020>023-029>032-281900-
WESTERN PENNSYLVANIA

CITY           SKY/WX    TMP DP  RH WIND       PRES   REMARKS
ERIE           CLOUDY    54  44  69 NW3       30.01F
MEADVILLE      CLOUDY    63  45  51 MISG      30.02F
FRANKLIN*      CLOUDY    64  43  45 SW14      30.04F
NEW CASTLE     FAIR      66  45  46 VRB5      30.05F
BEAVER COUNTY  NOT AVBL
BUTLER*        CLOUDY    66  46  48 S6        30.05F
PITTSBURGH INT CLOUDY    67  44  43 S7        30.04F
PITTSBURGH     PTSUNNY   67  44  43 SW8       30.04F
INDIANA*       SUNNY     70  39  32 W12       30.08F
LATROBE        PTSUNNY   70  46  43 W12       30.06F
WASHINGTON CO* PTSUNNY   70  48  46 CALM      30.06S
$$

PAZ004>006-010>012-017>019-024>028-033>037-041-042-045-046-049>053-281900-
CENTRAL PENNSYLVANIA

CITY           SKY/WX    TMP DP  RH WIND       PRES   REMARKS
BRADFORD       SUNNY     68  37  32 S13       30.04S
DUBOIS         PTSUNNY   66  42  41 SW9       30.06R
CLEARFIELD     PTSUNNY   70  43  37 S13       30.06S
JOHNSTOWN      MOSUNNY   70  40  33 S12       30.07S
ALTOONA        MOSUNNY   75  45  34 VRB6      30.06F
STATE COLLEGE  SUNNY     68  50  52 SW7       30.06S
WILLIAMSPORT   SUNNY     73  48  40 W8        30.01S
SELINSGROVE    MOSUNNY   76  50  40 W5        30.03S
FT INDIANTOWN  PTSUNNY   77  50  37 SW7       30.02S
CAPITAL CITY   SUNNY     78  46  32 VRB5      30.03R
HARRISBURG     MOSUNNY   78  47  33 NW9       30.03R
YORK           SUNNY     79  49  34 NW9       30.04R
$$

PAZ038>040-043-044-047-048-054-055-060>062-067>071-281900-
EASTERN PENNSYLVANIA

CITY           SKY/WX    TMP DP  RH WIND       PRES   REMARKS
SCRANTON       SUNNY     78  40  25 VRB7G21   30.00S
MOUNT POCONO   SUNNY     75  38  26 SW10      30.03F
ALLENTOWN      SUNNY     80  46  30 SW9       30.00F
QUAKERTOWN*    CLEAR     79  48  34 SW7       30.02S
READING        SUNNY     79  49  34 VRB7      30.01S
LANCASTER      SUNNY     78  53  41 W8        30.03S
COATESVILLE    CLEAR     77  50  38 NW7       30.05S
POTTSTOWN      SUNNY     80  49  33 W8        30.02F
BLUE BELL      SUNNY     79  54  41 W10       30.01S
DOYLESTOWN     SUNNY     81  53  37 VRB6G17   30.00F
WILLOW GROVE   NOT AVBL
NORTH PHILA    SUNNY     83  53  35 W8G17     30.01F
PHILADELPHIA   SUNNY     82  49  31 SW10      30.01S
$$



USA.gov is the U.S. government's official web portal to all federal, state and local government web resources and services.